Regional Weather Roundup
Issued by NWS Little Rock, AR

Home | Current Version | Previous Version | Graphics & Text | Print | Product List | Glossary On
Versions: 1 2 3 4 5 6 7 8 9 10 11 12 13 14 15 16 17 18 19 20 21 22 23 24 25 26 27 28 29 30 31 32
000
ASUS44 KLZK 211405
RWRLZK

WEATHER ROUNDUP FOR ARKANSAS
NATIONAL WEATHER SERVICE LITTLE ROCK AR
900 AM CDT MON AUG 21 2017

NOTE: "FAIR" INDICATES FEW OR NO CLOUDS BELOW 12,000 FEET WITH NO
SIGNIFICANT WEATHER AND/OR OBSTRUCTIONS TO VISIBILITY.

ARZ001-003-010-029-211500-
NORTHWEST ARKANSAS

CITY           SKY/WX    TMP DP  RH WIND       PRES   REMARKS
FAYETTEVILLE   SUNNY     79  73  82 S6        30.15R
FORT SMITH     SUNNY     80  74  81 E6        30.11R HX  85
HARRISON       SUNNY     80  73  79 SE3       30.17R
BENTONVILLE    SUNNY     79  70  73 S7        30.16R
ROGERS         SUNNY     80  72  76 S6        30.16S
SILOAM SPGS      N/A    N/A N/A N/A MISG        N/A
HIGHFILL       SUNNY     78  72  81 S5        30.15R
SPRINGDALE     SUNNY     81  72  74 S7        30.17R
$$

ARZ004-005-016-211500-
NORTH CENTRAL ARKANSAS

CITY           SKY/WX    TMP DP  RH WIND       PRES   REMARKS
BATESVILLE     SUNNY     82  75  78 CALM      30.13S HX  89
FLIPPIN        SUNNY     79  70  73 CALM      30.12R
MTN HOME       SUNNY     80  77  90 CALM      30.14R HX  87
$$

ARZ040-041-211500-
WEST CENTRAL ARKANSAS

CITY           SKY/WX    TMP DP  RH WIND       PRES   REMARKS
MENA           SUNNY     79  79 100 CALM      30.16R
MOUNT IDA      SUNNY     81  72  74 N3        30.12S HX  85
$$

ARZ009-017-025-026-028-211500-
NORTHEAST ARKANSAS

CITY           SKY/WX    TMP DP  RH WIND       PRES   REMARKS
JONESBORO      SUNNY     82  79  90 CALM      30.13R HX  92
NEWPORT        SUNNY     81  76  84 CALM      30.13S HX  87
WALNUT RIDGE   SUNNY     79  75  89 CALM      30.13S
BLYTHEVILLE    SUNNY     82  76  81 S5        30.14R HX  89
NW BLYTHEVILLE MOSUNNY   84  75  74 SW5       30.14R HX  92
$$

ARZ022-023-033-042-044-211500-
CENTRAL ARKANSAS

CITY           SKY/WX    TMP DP  RH WIND       PRES   REMARKS
LITTLE ROCK    SUNNY     83  76  79 SW5       30.12R HX  91
N LITTLE ROCK    N/A     83  75  75 SW5       30.12R HX  91
JACKSONVILLE   SUNNY     85  77  76 SW3       30.11R HX  95
CONWAY           N/A     84  75  74 W5        30.10R HX  92
SEARCY         SUNNY     83  79  88 MISG      30.14R HX  94
HOT SPRINGS    SUNNY     82  75  79 VRB3      30.13S HX  89
RUSSELLVILLE   SUNNY     81  75  82 SE3       30.12R HX  87
CLINTON        FAIR      77  75  94 CALM      30.14R
$$

ARZ036-211500-
EAST ARKANSAS

CITY           SKY/WX    TMP DP  RH WIND       PRES   REMARKS
WEST MEMPHIS   SUNNY     82  78  88 S3        30.12S HX  91
$$

ARZ050-053-066-070-073-211500-
SOUTHWEST ARKANSAS

CITY           SKY/WX    TMP DP  RH WIND       PRES   REMARKS
ARKADELPHIA    FAIR      81  74  79 CALM      30.12S HX  86
CAMDEN         SUNNY     82  72  69 CALM      30.12R HX  87
TEXARKANA      SUNNY     80  76  87 S3        30.12R HX  86
EL DORADO      SUNNY     82  75  79 CALM      30.13R HX  89
DE QUEEN       SUNNY     79  76  90 E3        30.11R
$$

ARZ056-057-069-211500-
SOUTHEAST ARKANSAS

CITY           SKY/WX    TMP DP  RH WIND       PRES   REMARKS
PINE BLUFF     SUNNY     83  76  79 CALM      30.12R HX  91
MONTICELLO     SUNNY     85  75  72 N3        30.12R HX  93

$$






USA.gov is the U.S. government's official web portal to all federal, state and local government web resources and services.